Wind_Speed
18 9 11 7 8 8 10 12 13 13 14 15 17 20 22 23 25 26 29 32 33 33 33 31 35 33 29 28 25 24 21 22
17 14 12 8 9 11 14 15 16 18 16 16 17 18 19 22 26 30 27 31 33 34 34 34 31 30 31 29 28 27 22 19
12 12 11 7 8 13 14 15 17 18 18 21 21 23 26 29 29 26 29 38 34 34 35 34 33 32 33 31 32 24 20 27
11 9 10 9 11 12 14 17 18 19 19 20 20 22 24 25 30 36 37 37 39 34 36 36 36 30 17 30 29 29 22 24
10 8 8 9 15 15 15 18 20 19 22 21 22 22 22 27 33 31 31 33 39 39 42 39 36 36 36 29 28 26 24 21
10 8 10 15 16 16 18 19 21 23 23 22 22 23 24 27 30 35 35 37 41 40 41 39 40 36 35 34 28 27 27 23
9 12 15 17 17 17 19 20 22 23 22 23 24 27 28 28 28 32 35 36 33 40 41 37 37 35 34 38 39 34 38 31
9 11 13 16 18 19 20 21 23 24 23 25 27 27 28 30 30 31 35 38 30 30 36 37 37 34 40 38 37 39 34 34
11 11 14 16 18 20 22 24 25 26 25 28 29 28 26 28 30 31 35 39 30 24 43 36 36 37 36 40 40 34 37 30
9 11 15 17 19 20 21 23 25 25 27 29 31 28 27 28 31 33 41 41 37 26 30 30 30 36 36 35 26 28 31 32
11 10 15 17 19 20 20 21 25 26 28 28 28 29 28 28 25 28 25 33 34 26 25 27 32 35 35 36 30 28 30 27
11 10 17 19 20 21 21 24 26 28 29 29 29 31 31 29 29 32 33 24 26 28 29 32 31 33 33 33 32 30 30 28
12 13 19 20 20 21 23 25 27 30 30 30 29 31 31 30 31 32 33 29 16 27 30 27 33 33 32 32 29 30 30 29
13 13 16 18 21 22 23 25 27 31 31 30 30 31 32 33 33 34 32 30 21 16 26 26 24 30 30 32 31 33 34 26
12 13 15 19 21 21 23 25 27 28 31 30 30 31 32 32 32 32 30 30 26 20 14 18 18 24 29 29 29 28 28 26
12 13 12 19 19 21 23 24 26 28 28 29 29 31 32 34 33 34 32 32 29 24 21 13 7 9 11 22 21 28 30 28
12 12 15 17 20 22 22 23 25 26 27 28 29 32 34 36 33 35 36 34 35 30 29 27 21 18 6 17 21 20 18 18
10 11 15 18 19 20 21 22 23 26 25 27 30 31 34 33 35 36 35 34 34 37 37 34 37 29 20 11 19 21 19 17
10 13 16 19 19 19 19 21 23 24 25 27 31 33 31 33 34 34 34 34 35 35 36 35 33 38 28 21 16 24 22 17
Wind_Direction
116 136 81 49 38 13 8 1 348 334 317 303 293 283 279 262 254 239 234 227 220 217 223 227 215 210 213 202 197 199 200 207
114 90 86 48 31 20 8 359 352 346 334 324 310 300 293 272 261 246 247 233 221 213 217 222 214 206 201 197 198 195 194 198
108 100 75 56 29 22 4 357 351 343 335 327 314 303 296 290 285 274 253 237 231 222 218 216 217 210 205 198 192 195 192 197
111 83 61 37 47 22 3 355 347 340 335 327 319 309 301 282 274 275 265 240 232 222 223 219 214 223 223 215 199 188 183 179
84 65 48 33 38 21 3 353 346 343 340 332 323 310 294 288 291 286 275 254 224 225 220 220 214 220 210 210 223 198 188 176
76 60 36 40 28 15 8 356 348 342 337 330 319 305 293 288 286 286 282 274 231 226 214 214 215 211 213 200 200 198 201 178
64 51 40 28 21 13 7 356 346 339 332 323 311 301 295 290 285 283 282 282 263 226 219 208 210 208 205 207 205 216 194 188
53 39 32 21 16 9 2 356 345 335 330 321 312 300 293 286 281 275 276 274 282 264 218 209 201 198 207 215 210 213 194 193
57 45 33 17 11 10 5 357 341 334 333 324 316 306 297 290 285 271 268 267 270 242 226 221 214 205 198 202 213 209 188 203
51 42 34 22 13 10 8 360 342 334 332 326 323 315 313 303 297 280 269 259 258 249 226 221 207 210 211 210 208 218 220 222
40 36 34 28 17 9 5 359 348 340 336 330 328 324 321 316 318 321 320 248 251 241 227 218 213 211 206 204 204 214 215 203
29 28 33 31 14 7 4 358 355 350 342 335 337 337 335 332 346 344 337 323 248 230 215 210 208 201 206 204 206 202 206 213
24 21 23 21 12 2 5 359 357 353 345 345 346 345 346 341 353 350 345 335 312 247 231 217 203 198 198 197 188 195 203 204
21 20 18 10 8 3 2 1 357 354 351 353 352 353 355 352 356 355 359 354 345 311 255 225 204 183 195 192 196 197 202 213
20 14 11 8 5 358 3 360 358 356 357 356 357 357 0 359 1 4 3 10 6 4 1 248 204 222 199 196 204 202 210 218
17 10 8 4 357 1 3 2 2 359 359 359 1 3 8 10 7 14 10 23 21 18 25 50 36 141 195 206 199 210 232 229
12 11 9 2 3 1 4 5 6 5 4 3 6 12 14 13 12 19 20 21 34 32 37 40 29 26 357 217 210 193 202 195
18 12 14 8 6 2 7 8 8 13 7 10 13 17 20 16 19 23 24 21 26 34 38 39 32 28 29 73 169 167 156 142
26 20 17 18 13 12 14 16 16 14 16 16 18 19 20 21 25 25 29 31 32 33 33 35 40 32 32 35 75 129 126 111
Height
709 717 721 727 731 735 736 735 736 735 733 731 730 728 726 726 726 725 726 727 728 731 736 737 738 740 744 747 749 753 756 762
712 720 724 729 733 735 736 735 735 734 732 731 729 727 725 723 721 721 720 720 721 724 727 731 733 735 738 739 744 747 751 757
713 721 727 732 734 735 736 736 735 734 733 730 728 726 723 720 716 713 713 713 713 717 719 721 726 729 731 730 733 741 745 748
713 723 732 734 734 735 736 736 736 735 733 730 727 724 720 716 713 708 704 704 705 706 712 713 716 719 705 732 733 733 738 740
715 726 734 734 735 737 738 737 735 733 732 730 729 725 721 717 711 705 700 697 694 696 698 703 707 712 721 724 728 732 733 735
721 732 735 734 736 738 739 738 736 733 731 731 729 725 721 715 709 701 695 690 684 684 683 689 694 700 711 711 717 725 729 730
728 732 733 737 739 740 740 738 736 735 733 730 728 723 716 711 706 699 691 682 678 676 678 682 685 690 697 699 700 718 721 721
732 734 736 740 740 740 740 737 736 738 733 730 725 719 713 706 700 694 687 677 675 676 665 675 678 679 688 694 702 691 710 714
733 736 739 742 743 741 740 737 739 739 732 727 721 714 707 700 693 687 679 670 674 673 674 670 670 673 684 691 698 703 701 714
736 737 740 743 745 744 743 742 744 739 732 725 716 709 701 694 686 679 669 663 661 665 665 663 663 670 678 684 693 694 697 700
737 740 743 747 747 747 745 746 745 737 730 724 714 705 697 690 681 670 660 656 654 652 652 657 662 666 671 678 684 688 692 692
745 743 743 746 751 750 748 745 742 734 729 722 710 703 693 686 675 666 657 651 650 650 651 654 657 660 665 670 675 680 677 684
748 748 747 750 753 752 750 747 741 736 730 719 710 702 692 686 675 668 660 652 644 645 645 648 649 654 659 665 667 673 676 683
756 754 756 759 756 754 752 748 743 738 730 720 712 703 694 687 677 669 661 654 645 642 640 639 643 647 655 659 664 666 671 678
763 762 764 762 761 761 753 751 747 741 732 724 716 708 699 692 683 674 666 659 652 646 642 638 641 647 652 655 660 666 667 674
768 769 768 769 770 761 757 754 749 743 736 730 722 713 704 695 690 680 673 663 659 655 648 643 644 639 651 654 657 662 663 667
777 776 777 778 769 764 761 757 753 747 740 734 726 717 707 702 696 686 678 672 664 669 657 648 655 650 649 651 655 659 663 664
784 784 782 778 772 769 765 761 756 750 746 739 731 723 714 711 703 694 690 684 679 670 670 664 660 660 654 653 651 657 661 665
789 787 784 780 777 773 769 765 760 756 750 744 736 728 725 719 712 708 701 696 690 683 678 677 676 669 664 662 661 657 663 668